TimeMST,TemperatureF,Dew PointF,Humidity,Sea Level PressureIn,VisibilityMPH,Wind Direction,Wind SpeedMPH,Gust SpeedMPH,PrecipitationIn,Events,Conditions,WindDirDegrees,DateUTC
12:15 AM,-0.4,-25.6,30,30.47,10.0,Calm,Calm,-,N/A,,Partly Cloudy,0,2013-12-15 07:15:00
12:35 AM,-0.4,-25.6,30,30.47,10.0,Calm,Calm,-,N/A,,Clear,0,2013-12-15 07:35:00
12:55 AM,-0.4,-20.2,39,30.47,10.0,Calm,Calm,-,N/A,,Clear,0,2013-12-15 07:55:00
1:15 AM,-2.2,-25.6,32,30.47,10.0,Calm,Calm,-,N/A,,Clear,0,2013-12-15 08:15:00
1:35 AM,-2.2,-22.0,39,30.47,8.0,Calm,Calm,-,N/A,,Clear,0,2013-12-15 08:35:00
1:55 AM,-2.2,-16.6,50,30.47,10.0,Calm,Calm,-,N/A,,Clear,0,2013-12-15 08:55:00
2:15 AM,-0.4,-0.4,100,30.47,10.0,Calm,Calm,-,N/A,,Clear,0,2013-12-15 09:15:00
2:35 AM,-2.2,-25.6,32,30.48,10.0,Calm,Calm,-,N/A,,Clear,0,2013-12-15 09:35:00
2:55 AM,-4.0,-29.2,29,30.48,10.0,Calm,Calm,-,N/A,,Clear,0,2013-12-15 09:55:00
3:15 AM,-5.8,-27.4,35,30.49,10.0,Calm,Calm,-,N/A,,Clear,0,2013-12-15 10:15:00
3:35 AM,-2.2,-25.6,32,30.49,10.0,Calm,Calm,-,N/A,,Clear,0,2013-12-15 10:35:00
3:55 AM,-5.8,-25.6,38,30.48,10.0,Calm,Calm,-,N/A,,Clear,0,2013-12-15 10:55:00
4:15 AM,-5.8,-25.6,38,30.47,10.0,NNE,4.6,-,N/A,,Clear,30,2013-12-15 11:15:00
4:35 AM,-5.8,-18.4,55,30.47,10.0,Calm,Calm,-,N/A,,Clear,0,2013-12-15 11:35:00
4:55 AM,-4.0,-14.8,60,30.47,10.0,ENE,4.6,-,N/A,,Clear,60,2013-12-15 11:55:00
5:15 AM,-5.8,-25.6,38,30.47,10.0,Calm,Calm,-,N/A,,Clear,0,2013-12-15 12:15:00
5:35 AM,-5.8,-9999,N/A,30.46,10.0,Calm,Calm,-,N/A,,Scattered Clouds,0,2013-12-15 12:35:00
5:55 AM,-5.8,-29.2,32,30.48,10.0,Calm,Calm,-,N/A,,Mostly Cloudy,0,2013-12-15 12:55:00
6:15 AM,-5.8,-27.4,35,30.49,10.0,Calm,Calm,-,N/A,,Scattered Clouds,0,2013-12-15 13:15:00
6:35 AM,-5.8,-27.4,35,30.49,10.0,Calm,Calm,-,N/A,,Clear,0,2013-12-15 13:35:00
6:55 AM,-5.8,-27.4,35,30.48,10.0,Calm,Calm,-,N/A,,Clear,0,2013-12-15 13:55:00
7:15 AM,-5.8,-23.8,42,30.49,10.0,Calm,Calm,-,N/A,,Clear,0,2013-12-15 14:15:00
7:35 AM,-5.8,-22.0,46,30.50,6.0,Calm,Calm,-,N/A,,Clear,0,2013-12-15 14:35:00
7:55 AM,-5.8,-14.8,65,30.50,10.0,Calm,Calm,-,N/A,,Clear,0,2013-12-15 14:55:00
8:15 AM,-5.8,-16.6,60,30.51,10.0,East,4.6,-,N/A,,Clear,80,2013-12-15 15:15:00
8:35 AM,-4.0,-16.6,55,30.51,10.0,East,3.5,-,N/A,,Clear,80,2013-12-15 15:35:00
8:55 AM,-4.0,-20.2,46,30.52,10.0,Calm,Calm,-,N/A,,Clear,0,2013-12-15 15:55:00
9:15 AM,-2.2,-27.4,29,30.53,10.0,Calm,Calm,-,N/A,,Clear,0,2013-12-15 16:15:00
9:35 AM,-0.4,-27.4,27,30.53,10.0,ESE,3.5,-,N/A,,Clear,120,2013-12-15 16:35:00
9:55 AM,1.4,-25.6,27,30.53,10.0,East,3.5,-,N/A,,Clear,90,2013-12-15 16:55:00
10:15 AM,1.4,-23.8,30,30.53,10.0,Calm,Calm,-,N/A,,Clear,0,2013-12-15 17:15:00
10:35 AM,1.4,-20.2,36,30.53,10.0,ESE,3.5,-,N/A,,Clear,120,2013-12-15 17:35:00
10:55 AM,3.2,-13.0,47,30.52,10.0,Calm,Calm,-,N/A,,Clear,0,2013-12-15 17:55:00
11:15 AM,6.8,-16.6,34,30.51,10.0,SE,3.5,-,N/A,,Clear,130,2013-12-15 18:15:00
11:35 AM,6.8,-7.6,52,30.50,10.0,SSE,3.5,-,N/A,,Clear,160,2013-12-15 18:35:00
11:55 AM,8.6,-9.4,44,30.49,10.0,SSE,3.5,-,N/A,,Clear,150,2013-12-15 18:55:00
12:15 PM,10.4,-9.4,41,30.49,10.0,Calm,Calm,-,N/A,,Clear,0,2013-12-15 19:15:00
12:35 PM,10.4,-13.0,34,30.47,10.0,SSE,4.6,-,N/A,,Clear,150,2013-12-15 19:35:00
12:55 PM,12.2,-5.8,45,30.47,10.0,Calm,Calm,-,N/A,,Clear,0,2013-12-15 19:55:00
1:15 PM,14.0,3.2,62,30.46,10.0,SE,3.5,-,N/A,,Clear,140,2013-12-15 20:15:00
1:35 PM,14.0,3.2,62,30.45,10.0,Calm,Calm,-,N/A,,Clear,0,2013-12-15 20:35:00
1:55 PM,15.8,5.0,62,30.44,10.0,Calm,Calm,-,N/A,,Clear,0,2013-12-15 20:55:00
2:15 PM,15.8,5.0,62,30.44,10.0,Calm,Calm,-,N/A,,Clear,0,2013-12-15 21:15:00
2:35 PM,17.6,6.8,63,30.44,10.0,Calm,Calm,-,N/A,,Clear,0,2013-12-15 21:35:00
2:55 PM,17.6,6.8,63,30.44,10.0,Calm,Calm,-,N/A,,Clear,0,2013-12-15 21:55:00
3:15 PM,17.6,6.8,63,30.45,10.0,Calm,Calm,-,N/A,,Clear,0,2013-12-15 22:15:00
3:35 PM,19.4,6.8,58,30.44,10.0,Calm,Calm,-,N/A,,Clear,0,2013-12-15 22:35:00
3:55 PM,19.4,6.8,58,30.44,10.0,Calm,Calm,-,N/A,,Clear,0,2013-12-15 22:55:00
4:15 PM,19.4,6.8,58,30.44,10.0,Calm,Calm,-,N/A,,Clear,0,2013-12-15 23:15:00
4:35 PM,17.6,6.8,63,30.44,10.0,South,4.6,-,N/A,,Clear,170,2013-12-15 23:35:00
4:55 PM,15.8,3.2,58,30.44,10.0,South,3.5,-,N/A,,Clear,180,2013-12-15 23:55:00
5:15 PM,12.2,1.4,62,30.45,10.0,Calm,Calm,-,N/A,,Clear,0,2013-12-16 00:15:00
5:35 PM,12.2,6.8,79,30.45,10.0,Calm,Calm,-,N/A,,Clear,0,2013-12-16 00:35:00
5:55 PM,10.4,1.4,67,30.46,10.0,Calm,Calm,-,N/A,,Clear,0,2013-12-16 00:55:00
6:15 PM,10.4,1.4,67,30.46,10.0,North,3.5,-,N/A,,Clear,360,2013-12-16 01:15:00
6:35 PM,10.4,3.2,73,30.46,10.0,Calm,Calm,-,N/A,,Clear,0,2013-12-16 01:35:00
6:55 PM,5.0,-5.8,61,30.48,10.0,Calm,Calm,-,N/A,,Clear,0,2013-12-16 01:55:00
7:15 PM,8.6,6.8,92,30.48,10.0,North,4.6,-,N/A,,Clear,10,2013-12-16 02:15:00
7:35 PM,6.8,-0.4,72,30.48,10.0,Calm,Calm,-,N/A,,Clear,0,2013-12-16 02:35:00
7:55 PM,6.8,-0.4,72,30.48,10.0,North,3.5,-,N/A,,Clear,350,2013-12-16 02:55:00
8:15 PM,6.8,-0.4,72,30.49,10.0,Calm,Calm,-,N/A,,Clear,0,2013-12-16 03:15:00
8:35 PM,1.4,-9.4,61,30.49,10.0,Calm,Calm,-,N/A,,Clear,0,2013-12-16 03:35:00
8:55 PM,1.4,1.4,100,30.49,10.0,Calm,Calm,-,N/A,,Clear,0,2013-12-16 03:55:00
9:15 PM,1.4,-5.8,72,30.50,10.0,North,3.5,-,N/A,,Clear,360,2013-12-16 04:15:00
9:35 PM,3.2,3.2,100,30.50,5.0,Calm,Calm,-,N/A,,Clear,0,2013-12-16 04:35:00
9:55 PM,-0.4,-14.8,51,30.50,10.0,Calm,Calm,-,N/A,,Clear,0,2013-12-16 04:55:00
10:15 PM,1.4,1.4,100,30.50,10.0,Calm,Calm,-,N/A,,Clear,0,2013-12-16 05:15:00
10:35 PM,1.4,-14.8,47,30.50,10.0,Calm,Calm,-,N/A,,Clear,0,2013-12-16 05:35:00
10:55 PM,-0.4,-0.4,100,30.50,9.0,Calm,Calm,-,N/A,,Clear,0,2013-12-16 05:55:00
11:15 PM,-2.2,-16.6,50,30.50,10.0,Calm,Calm,-,N/A,,Clear,0,2013-12-16 06:15:00
11:35 PM,-0.4,-2.2,92,30.50,10.0,NE,3.5,-,N/A,,Clear,40,2013-12-16 06:35:00
11:55 PM,-0.4,-13.0,55,30.49,10.0,NE,3.5,-,N/A,,Clear,40,2013-12-16 06:55:00